Tracking 19817 objects as of 19-Aug-2019
HD Live streaming from Space Station
objects crossing your sky now

COSMOS 529

Track COSMOS 529 now!
10-day predictions
COSMOS 529 is classified as:


NORAD ID: 6264
Int'l Code: 1972-087B
Perigee: 1,408.8 km
Apogee: 1,474.8 km
Inclination: 74.0 °
Period: 114.5 minutes
Semi major axis: 7812 km
RCS: 0.695 m2 (medium)
Launch date: November 1, 1972
Source: Commonwealth of Independent States (former USSR) (CIS)
Launch site: PLESETSK MISSILE AND SPACE COMPLEX (PKMTR)
aabbcc
Your satellite tracking list
Your tracking list is empty




NASA's NSSDC Master Catalog

Two Line Element Set (TLE):
1  6264U 72087B   19230.82116286 +.00000000 +00000-0 +97877-4 0  9993
2  6264 074.0347 115.6488 0042265 337.9766 086.9285 12.57167953147510
Source of the keplerian elements: AFSPC